Location: Crowhurst
(50.8667°N, 0.5000°E)
Time: 00:12:23
(UTC+00:00)

Daily predictions for brighter satellites

Satellite Brightness Start Highest point End
(mag) Time Altitude Azimuth Time Altitude Azimuth Time Altitude Azimuth
GENESIS II 4.4 00:03:13 10° NW 00:07:14 68° NE 00:07:31 65° ENE
Cosmos 2333 4.2 00:02:59 10° NNW 00:08:48 74° WSW 00:10:14 51° S
Cosmos 2219 Rocket 2.2 00:03:37 10° NNW 00:09:21 83° ENE 00:11:13 45° SE
Cosmos 836 Rocket 4.4 00:05:19 10° NNW 00:10:33 79° WSW 00:11:32 59° S
Cosmos 1464 Rocket 4.3 00:08:47 39° SE 00:10:48 56° E 00:16:52 10° NNE
Lacrosse 4 Rocket 1.7 00:13:01 53° ESE 00:13:01 53° ESE 00:16:51 10° NE
Cosmos 2233 Rocket 4.2 00:10:46 39° SW 00:13:07 64° WNW 00:19:27 10° N
Cosmos 1782 Rocket 3.8 00:12:54 53° ESE 00:13:09 54° E 00:17:24 10° NNE
FALCON 9 DEB 4.0 00:15:50 48° NE 00:15:50 48° NE 00:18:34 10° ENE
Cosmos 2322 Rocket 3.7 00:12:47 10° NW 00:17:01 22° W 00:17:43 21° WSW
SL-4 R/B 4.2 00:22:18 12° E 00:22:18 12° E 00:22:39 10° E
Cosmos 1536 4.4 00:19:16 25° W 00:19:57 26° WNW 00:23:21 10° NNW
Cosmos 968 Rocket 3.4 00:19:13 59° SSE 00:20:03 72° ESE 00:25:11 10° NNE
SL-16 R/B 4.4 00:15:46 10° NNW 00:20:18 24° NE 00:24:49 10° E
Landsat 4 3.9 00:16:33 10° NNE 00:20:07 63° E 00:20:07 63° E
Cosmos 1908 Rocket 3.5 00:21:10 68° SW 00:21:34 74° W 00:25:58 10° N
COSMOS 2428 2.6 00:21:42 10° NNW 00:27:29 83° WSW 00:29:12 47° SSE
Nadezhda 4 Rocket 4.1 00:26:24 10° N 00:32:44 71° ENE 00:35:18 37° SSE
Cosmos 2360 Rocket 3.2 00:28:05 10° NW 00:32:53 29° WSW 00:33:24 28° WSW
SL-16 R/B 3.6 00:28:37 15° SE 00:33:20 41° ENE 00:39:09 10° N
CENTAUR R/B 3.4 00:27:24 10° WSW 00:33:32 51° NNW 00:40:52 10° NE
CZ-2D R/B 3.9 00:31:33 10° NE 00:35:49 23° E 00:38:05 18° ESE
Cosmos 2034 Rocket 4.2 00:35:41 40° SSE 00:37:54 63° E 00:44:09 10° NNE
Cosmos 1513 Rocket 4.5 00:37:32 44° S 00:39:47 89° E 00:46:15 10° N
USA 267 3.9 00:33:33 10° E 00:39:54 56° N 00:46:16 10° WNW
Cosmos 1072 Rocket 4.4 00:39:08 45° SSW 00:41:09 86° W 00:47:18 10° N
Cosmos 1743 3.8 00:41:15 34° W 00:41:28 35° WNW 00:45:06 10° N
GEOS 3 Rocket 4.2 00:36:47 10° NE 00:41:55 42° ESE 00:42:46 39° SSE
Okean 2 Rocket 3.7 00:41:46 41° ESE 00:42:30 44° E 00:46:47 10° NNE
Cosmos 1271 Rocket 4.2 00:39:24 10° NW 00:42:07 26° WNW 00:42:07 26° WNW
Meteor 2-9 Rocket 4.1 00:41:29 50° S 00:43:01 88° E 00:48:44 10° NNE
Cosmos 1092 Rocket 4.4 00:38:37 10° N 00:44:48 57° ENE 00:48:01 28° SE
Cosmos 1975 Rocket 3.1 00:40:46 10° NNW 00:45:13 63° W 00:45:36 60° WSW
Cosmos 1544 3.6 00:45:29 48° WNW 00:45:29 48° WNW 00:48:55 10° N
Cosmos 1975 2.9 00:45:31 64° W 00:45:39 65° WNW 00:49:41 10° N
Cosmos 1980 4.0 00:40:50 10° NNW 00:46:31 66° ENE 00:49:51 25° SE
Cosmos 2333 Rocket 2.5 00:41:33 10° NW 00:47:09 51° WSW 00:48:12 45° SW
Cosmos 2297 Rocket 3.6 00:45:36 21° SE 00:47:14 25° ESE 00:51:43 10° NE
Cosmos 2219 4.4 00:45:50 25° SE 00:47:21 28° ESE 00:52:04 10° NE
PSLV R/B 3.7 00:42:55 10° NNE 00:47:33 77° WNW 00:48:26 58° SW
COSMOS 2487 3.7 00:48:08 32° WNW 00:48:13 32° WNW 00:51:22 10° N
Helios 1B rocket 2.3 00:44:25 10° NNE 00:48:33 79° ESE 00:48:49 73° SSE
Sich 1 Rocket 3.4 00:48:43 66° SSE 00:49:16 79° E 00:53:41 10° NNE
Meteor 1-29 3.5 00:49:03 10° NNE 00:52:12 51° E 00:52:12 51° E
Cosmos 44 Rocket 3.2 00:49:00 10° NW 00:53:59 74° SW 00:55:08 52° SSE
Cosmos 783 Rocket 4.4 00:48:58 10° NNW 00:54:12 73° WSW 00:55:27 51° S
Cosmos 2237 Rocket 2.3 00:50:53 10° NNW 00:56:35 72° ENE 00:59:51 26° SE
Cosmos 1503 Rocket 4.0 00:56:39 49° SSW 00:58:10 85° WNW 01:03:36 10° NNE
Cosmos 1300 Rocket 3.7 00:57:53 51° SE 00:58:33 58° E 01:02:48 10° NNE
CZ-4 R/B 4.1 00:59:30 10° N 01:04:25 63° WNW 01:05:48 44° SW
CZ-4C R/B 4.3 01:04:19 30° ESE 01:05:14 36° ENE 01:08:30 10° N
Spot 1 4.0 01:06:48 51° SE 01:07:45 74° ENE 01:11:51 10° NNW
Cosmos 2151 Rocket 3.7 01:12:29 49° SSE 01:13:27 64° E 01:17:49 10° NNE
Meteor 1-12 Rocket 4.4 01:11:28 40° S 01:13:45 79° E 01:19:47 10° NNE
Timation 2 Rocket 4.0 01:14:34 39° S 01:16:52 65° ESE 01:22:52 10° NE
Cosmos 1707 2.8 01:13:07 10° NNW 01:17:00 58° W 01:17:05 58° WSW
In-Cosmos 22 4.1 01:11:20 10° NNW 01:17:02 88° W 01:19:14 38° S
DNEPR-1 R/B 4.2 01:19:32 10° NW 01:25:44 76° NE 01:30:42 10° SE
ERBS 2.5 01:22:43 10° NW 01:26:00 65° NNE 01:29:16 10° ESE
SJ 16-02 3.4 01:25:10 15° SE 01:27:04 19° E 01:30:13 10° NE
Meteor 2-13 Rocket 4.4 01:25:08 10° NNW 01:31:15 80° W 01:34:11 33° S
Cosmos 1538 Rocket 3.9 01:28:28 10° NNW 01:33:39 76° WSW 01:35:51 35° S
Cosmos 2195 Rocket 4.5 01:27:33 10° NNW 01:33:53 78° W 01:37:03 32° S
Cosmos 1025 Rocket 3.3 01:31:27 10° NNW 01:35:35 48° W 01:36:08 45° WSW
Cosmos 2227 Rocket 2.8 01:33:34 30° SSE 01:35:58 47° ESE 01:41:22 10° NE
Resurs 1-4 Rocket 2.3 01:31:48 10° NNE 01:37:05 64° ESE 01:39:24 33° S
MOZ.5/SAFIR/RUBIN 5/SL-8 3.9 01:36:59 43° SSW 01:38:19 61° WSW 01:43:03 10° NNW
Cosmos 1674 2.6 01:35:14 10° N 01:38:58 79° E 01:39:47 52° SSE
SL-19 R/B 4.4 01:34:41 10° NNE 01:40:45 77° WNW 01:43:22 35° SSW
NOSS 0 Rocket 4.4 01:36:51 10° NW 01:42:41 43° WSW 01:44:40 33° SSW
Cosmos 1733 4.4 01:42:54 26° SE 01:44:20 35° E 01:47:52 10° NNE
Cosmos 1437 4.1 01:41:40 10° NNW 01:43:28 25° WNW 01:43:28 25° WNW
Cosmos 773 Rocket 4.4 01:40:25 10° NW 01:45:14 41° WSW 01:46:18 36° SW
ATLAS 3B R/B 3.5 01:40:56 12° W 01:46:47 44° NNW 01:53:11 10° NE
Cosmos 1536 Rocket 3.9 01:43:29 10° NNW 01:47:39 46° W 01:48:26 41° SW
Cosmos 2026 Rocket 3.9 01:41:54 10° NNW 01:47:57 72° W 01:51:08 30° S
USA 215 3.9 01:42:25 10° ENE 01:48:30 39° SE 01:51:29 26° S
Cosmos 2279 Rocket 4.3 01:44:46 24° SSE 01:48:34 62° E 01:54:41 10° NNE
Cosmos 1627 Rocket 4.5 01:44:26 10° NNW 01:50:32 66° W 01:53:40 30° SSW
COBE Rocket 4.2 01:47:34 19° SSE 01:50:48 62° ENE 01:55:25 10° N
Lacrosse 4 Rocket 3.1 01:49:19 17° W 01:51:40 26° NW 01:55:15 10° NNE
FALCON 9 DEB 3.3 01:49:07 12° WNW 01:52:21 72° NNE 01:55:49 10° E
Cosmos 2219 Rocket 3.7 01:48:43 10° WNW 01:52:36 19° W 01:52:54 19° WSW
Cosmos 1634 Rocket 4.0 01:50:26 31° SSW 01:53:42 82° W 01:59:58 10° N
Cosmos 2344 4.4 01:44:34 10° NW 01:53:53 67° SW 02:06:50 10° SSE
SL-4 R/B 1.4 01:58:02 49° W 01:58:47 68° SSW 02:02:09 10° ESE
IRAS Rocket 4.4 01:57:00 32° SSW 01:59:22 53° WSW 02:04:51 10° NNW
Meteor 1-24 Rocket 3.8 01:58:48 10° N 02:04:21 74° ENE 02:08:55 14° SSE
SL-16 R/B 2.2 01:59:29 10° NNW 02:05:14 88° ENE 02:10:56 10° SSE
Meteor 2-5 Rocket 3.6 02:02:22 10° NNW 02:08:05 82° W 02:11:59 20° S
COSMOS 2428 4.4 02:07:35 10° WNW 02:10:52 16° W 02:11:10 16° WSW
ARIANE 5 R/B 4.0 02:08:32 10° NNE 02:13:13 32° E 02:17:53 10° SSE
NPP 3.6 02:09:55 10° NNE 02:15:20 78° WNW 02:18:23 27° SSW
CZ-2D R/B 2.3 02:10:54 10° N 02:16:21 67° WNW 02:19:24 27° SW
SL-16 R/B 2.9 02:13:43 26° SSW 02:16:55 45° W 02:22:56 10° NNW
Cosmos 1680 Rocket 3.5 02:11:42 10° NNW 02:16:59 89° ENE 02:22:12 10° SSE
KORONAS-FOTON 4.3 02:14:29 10° NNW 02:18:02 39° W 02:18:47 35° WSW
GEOS 3 Rocket 4.2 02:14:46 10° NE 02:20:03 55° NW 02:23:52 19° WSW
AQUA 3.8 02:17:04 10° NNE 02:21:51 79° WNW 02:24:27 27° SSW
USA 267 3.2 02:16:10 10° ESE 02:22:43 90° S 02:29:18 10° WNW
Cosmos 1607 4.0 02:17:28 10° NW 02:23:52 69° SW 02:30:18 10° SSE
ADEOS II 2.3 02:19:21 10° NNE 02:24:37 68° ESE 02:28:23 19° S
Cosmos 1766 3.3 02:26:32 32° SSW 02:28:09 64° WNW 02:32:02 10° N
IRS-1D 3.5 02:23:24 10° NNE 02:28:28 83° ESE 02:31:54 21° SSW
Cosmos 2263 Rocket 4.2 02:25:42 10° SSE 02:29:39 20° E 02:33:37 10° NE
Meteor 1-22 Rocket 4.1 02:27:12 21° S 02:30:48 83° E 02:36:09 10° NNE
Cosmos 2297 Rocket 2.3 02:27:24 24° SW 02:30:49 67° WNW 02:36:29 10° NNE
Okean 1-7 Rocket 3.6 02:26:36 10° N 02:31:02 81° E 02:35:04 12° SSE
Cosmos 2219 3.5 02:27:45 23° SW 02:31:10 58° NW 02:36:44 10° NNE
TIMED 4.4 02:31:06 10° NNW 02:35:28 68° WSW 02:39:35 11° SSE
Uosat 12 SS-18 rocket 4.3 02:33:34 24° SW 02:36:31 69° NW 02:40:56 10° NE
Cosmos 1626 2.2 02:33:29 10° NNW 02:37:08 55° W 02:38:57 26° SSW
Cosmos 2266 Rocket 4.0 02:31:29 10° N 02:37:55 89° W 02:44:13 10° S
Cosmos 1655 Rocket 4.0 02:32:31 10° NNW 02:38:47 70° W 02:44:28 12° S
Cosmos 2237 Rocket 3.4 02:35:49 10° NW 02:40:05 22° WSW 02:41:37 20° SW
Meteor 1-28 Rocket 3.3 02:36:22 10° SSE 02:40:07 76° ENE 02:43:56 10° N
Okean 1 Rocket 3.8 02:38:14 24° SW 02:40:15 38° WNW 02:44:21 10° N
CZ-4B R/B 3.4 02:37:00 10° NNE 02:41:47 69° WNW 02:44:51 22° SSW
Cosmos 1470 3.1 02:41:43 17° S 02:44:42 64° E 02:48:40 10° NNE
Cosmos 1603 4.4 02:39:01 10° NNW 02:44:43 58° NE 02:50:21 10° SE
Cosmos 923 Rocket 4.4 02:41:53 10° NW 02:46:56 43° WSW 02:51:06 14° S
SL-08 R/B 3.4 02:44:33 10° SSE 02:49:30 78° WSW 02:54:30 10° NNW
Cosmos 2098 Rocket 3.5 02:48:23 10° NNW 02:52:58 69° W 02:58:46 10° S
USA 229 DEB 4.3 02:48:34 13° S 02:54:00 47° ESE 03:00:31 10° NE
USA 229 4.3 02:48:40 13° S 02:54:06 46° ESE 03:00:35 10° NE
Cosmos 158 Rocket 4.3 02:49:37 10° NNW 02:54:45 48° WSW 02:59:54 10° S
SL-14 R/B 4.0 02:58:01 10° NNW 03:01:36 34° W 03:03:48 19° SW
ERBS 3.4 02:59:22 10° W 03:02:01 22° SW 03:04:39 10° S
NOSS 3-1 (A) 4.4 03:00:12 10° S 03:05:14 38° ESE 03:11:00 10° NE
SJ 16-02 1.6 03:02:10 19° SW 03:05:15 56° WNW 03:09:38 10° NNE
CSL-04 DEB 4.4 03:07:03 10° SSE 03:10:57 79° ENE 03:14:55 10° NNW
Cosmos 1809 Rocket 4.4 03:05:53 10° NNW 03:12:00 78° W 03:18:06 10° S
Cosmos 1943 3.5 03:06:22 10° NNW 03:12:01 74° ENE 03:17:38 10° SE
IRS-P3 4.2 03:07:45 10° N 03:13:05 67° WNW 03:17:57 12° SSW
Cosmos 1626 Rocket 3.5 03:09:01 10° NNW 03:13:23 82° W 03:17:41 10° S
Cosmos 1455 Rocket 3.3 03:11:32 15° SSW 03:15:04 54° WNW 03:19:28 10° N
Resurs 1-4 Rocket 3.5 03:12:18 10° N 03:16:30 24° WNW 03:20:28 11° WSW
Spot 4 Rocket 4.2 03:11:47 10° NNE 03:16:58 74° ESE 03:22:08 10° S
Cosmos 1758 3.3 03:13:24 13° SSW 03:17:00 71° WNW 03:21:03 10° N
Meteor 1-21 Rocket 4.2 03:11:28 10° NNW 03:17:04 89° ENE 03:22:37 10° S
Cosmos 2227 Rocket 3.1 03:15:24 12° WSW 03:20:09 38° NW 03:25:28 10° NNE
SeaSat 1 3.7 03:16:47 10° NE 03:21:20 36° ESE 03:25:52 10° S
CZ-2C R/B 3.3 03:21:14 10° NNE 03:25:07 58° E 03:28:53 10° S
Landsat 5 3.4 03:21:48 10° SSE 03:25:42 83° ENE 03:29:45 10° NNW
CZ-2D R/B 3.4 03:22:38 10° NNE 03:26:46 86° W 03:30:45 10° SSW
Cosmos 1461 3.1 03:23:26 13° SW 03:27:16 84° NW 03:31:54 10° NE
FALCON 9 DEB 3.6 03:25:59 10° WNW 03:29:16 38° SSW 03:32:29 10° SE
Cosmos 1758 Rocket 4.1 03:27:00 10° N 03:31:19 62° ENE 03:35:35 10° SSE
USA 215 3.3 03:25:22 10° ENE 03:31:56 85° NNW 03:38:30 10° WSW
ATLAS CENTAUR R/B 4.1 03:31:48 10° SE 03:33:04 11° ESE 03:34:18 10° E
Cosmos 1340 Rocket 3.2 03:29:56 11° SSW 03:33:36 48° WNW 03:37:28 10° N
Cosmos 724 4.4 03:28:57 10° NW 03:34:50 59° WSW 03:40:48 10° SSE
Meteor 2-21 4.5 03:29:05 10° NNW 03:35:03 62° W 03:41:00 10° S
ERS-2 2.1 03:33:18 10° SSE 03:36:57 83° WSW 03:40:38 10° NNW
SL-4 R/B 3.0 03:35:25 10° W 03:37:52 18° SW 03:40:17 10° S
ATLAS 3B R/B 4.4 03:33:33 10° WNW 03:39:08 27° N 03:44:51 10° NE
Cosmos 1953 2.3 03:35:55 10° SSW 03:39:56 77° W 03:44:00 10° N
Cosmos 2082 4.4 03:35:22 10° WSW 03:40:39 43° NW 03:46:02 10° NNE
Cosmos 1726 2.2 03:39:12 10° SSW 03:42:51 61° WNW 03:46:31 10° N
Cosmos 1908 3.8 03:41:14 10° S 03:45:05 59° E 03:48:58 10° NNE
Meteor 1-16 Rocket 4.3 03:40:53 10° S 03:46:15 78° E 03:51:47 10° NNE
SL-16 R/B 3.6 03:44:54 10° WNW 03:48:35 18° W 03:52:15 10° SW
H-2A R/B 2.2 03:47:25 10° S 03:51:25 49° W 03:55:25 10° NNW
ARIANE 5 R/B 3.1 03:47:30 10° N 03:52:27 44° WNW 03:57:23 10° SW
Cosmos 1937 Rocket 3.8 03:47:38 10° SW 03:52:52 57° WNW 03:58:08 10° NNE
Cosmos 1825 Rocket 3.7 03:49:32 10° N 03:53:56 82° E 03:58:15 10° SSE
CZ-2D R/B 4.2 03:52:31 10° NNW 03:55:27 15° NW 03:58:25 10° W
IDEFIX/ARIANE 42P 2.8 03:50:49 10° N 03:55:56 59° WNW 04:01:02 10° SSW
Cosmos 1898 Rocket 4.2 03:52:30 10° SW 03:57:27 41° WNW 04:02:24 10° NNE
Cosmos 1328 3.8 03:54:21 10° NNW 03:58:21 79° W 04:02:21 10° S
Cosmos 1953 Rocket 4.1 03:55:27 10° N 03:59:57 66° ENE 04:04:25 10° SSE
